Location: Unspecified
(0.0000°N, 0.0000°E)
Time: 18:43:16
(UTC+01:00)

Cosmos 1954 Rocket - Visible Passes

Search period start: 22 November 2014 00:00
Search period end: 02 December 2014 00:00
Orbit: 753 x 783 km, 74.0° (Epoch: 21 November)

Date Brightness Start Highest point End Pass type
(mag) Time Alt. Az. Time Alt. Az. Time Alt. Az.
22 Nov 4.4 06:03:53 10° S 06:09:05 71° ESE 06:14:18 10° NNE visible
23 Nov 5.8 05:27:25 10° SSE 05:32:06 34° ESE 05:36:48 10° NE visible
24 Nov 6.9 04:51:53 10° SE 04:55:07 17° ESE 04:58:22 10° ENE visible
25 Nov 4.0 05:54:46 10° SSW 05:59:54 58° WNW 06:05:04 10° N visible
26 Nov 4.3 05:17:43 10° S 05:22:55 68° ESE 05:28:08 10° NNE visible
27 Nov 5.7 04:41:18 10° SSE 04:45:57 32° ESE 04:50:36 10° NE visible
28 Nov 6.7 04:05:49 10° SE 04:08:57 16° ESE 04:12:05 10° ENE visible
28 Nov 4.8 05:46:13 10° SW 05:50:43 29° WNW 05:55:14 10° NNW visible
29 Nov 3.9 05:08:34 10° SSW 05:13:44 61° WNW 05:18:55 10° N visible
30 Nov 4.6 04:31:33 10° S 04:35:39 51° SSE 04:35:39 51° SSE visible
01 Dec 6.5 03:55:10 10° SSE 03:56:19 16° SSE 03:56:19 16° SSE visible
